Dewpoint
41 41 40 40 40 39 40 40 42 41 42 44 44 45 49 53 54 56 55 53 52 52 52 52 52 54 49 43 42 47 49 46 52 55 52 48 44 41 38 37 40 38 35 38 39 41 39
40 40 38 39 39 40 40 38 37 37 39 41 43 45 44 49 52 55 56 54 53 52 52 52 52 53 43 30 38 43 42 47 53 53 52 49 45 44 41 39 38 38 39 38 39 38 38
38 39 39 39 39 40 41 41 40 39 37 36 40 44 44 45 49 53 55 54 53 52 52 51 52 48 44 37 42 44 43 45 51 52 51 50 48 45 43 41 42 41 38 37 36 36 36
39 40 40 40 39 40 41 40 40 39 38 39 38 43 44 45 46 52 54 56 54 53 52 51 52 45 38 42 44 41 42 42 47 48 51 52 49 47 43 43 40 37 37 32 33 36 36
38 43 42 41 40 42 41 40 40 38 37 39 38 43 45 45 45 50 53 55 54 53 52 52 47 43 38 42 41 40 41 42 44 42 44 51 48 43 43 38 34 34 29 31 31 33 33
43 41 42 42 41 42 42 41 41 38 38 37 40 42 45 46 46 50 51 55 54 52 51 51 46 41 41 38 40 42 42 41 41 42 41 40 38 34 33 33 26 26 29 29 28 31 33
40 41 42 41 41 41 41 40 40 40 39 40 40 43 44 45 47 48 51 54 46 44 45 39 39 36 38 41 43 41 40 39 39 39 36 38 34 31 30 30 30 32 30 30 30 32 30
40 42 41 42 41 41 40 41 40 40 40 42 42 43 42 44 46 46 49 46 43 43 39 42 42 40 43 43 38 40 41 36 37 35 35 34 31 30 32 32 31 31 30 28 28 29 29
42 42 40 41 42 42 41 40 40 40 40 41 42 42 41 42 46 45 45 47 44 42 34 39 41 39 41 42 38 39 38 37 34 34 33 30 30 32 32 31 30 29 29 29 28 28 27
42 37 41 41 41 41 41 40 40 40 38 37 42 43 42 43 43 42 43 49 50 41 33 31 37 39 40 40 36 40 38 36 36 32 33 32 32 31 31 30 30 26 28 29 29 27 24
38 38 40 40 41 41 41 40 40 40 37 39 43 44 44 44 43 39 44 51 48 39 22 30 36 42 39 34 36 39 39 37 33 33 34 30 32 33 31 30 30 29 29 28 28 26 26
40 39 39 39 40 40 40 40 39 37 37 42 44 46 46 43 43 41 47 48 43 29 20 31 37 38 37 34 36 39 39 39 37 33 34 30 34 33 31 31 31 31 30 30 28 28 23
40 39 39 40 40 40 40 39 37 36 40 43 45 47 45 45 38 45 48 41 28 25 29 30 30 37 33 32 34 35 36 36 32 29 29 30 31 33 33 31 32 32 31 21 22 22 17
40 40 41 40 40 38 39 38 36 37 41 46 48 47 46 45 43 46 45 33 25 24 27 31 32 34 32 31 32 34 34 33 32 31 30 26 25 31 35 31 27 30 28 20 13 12 13
41 41 41 40 39 39 39 38 36 38 43 47 46 45 44 45 45 46 37 27 28 24 29 30 32 29 30 30 31 31 31 28 30 32 28 28 26 32 33 33 31 31 29 29 26 24 21
41 40 39 39 38 39 39 38 37 39 43 46 43 41 41 46 45 40 32 30 27 31 30 29 27 27 25 28 29 28 28 29 29 31 33 30 26 28 30 34 33 32 31 26 27 16 12
40 39 40 39 39 39 39 36 37 39 43 45 42 36 43 45 42 36 30 31 33 33 32 29 28 28 28 28 28 27 28 28 31 30 32 30 26 26 31 30 27 30 29 31 27 25 17
38 39 39 39 40 39 39 35 37 40 44 44 40 31 45 43 33 34 32 35 34 33 35 33 31 30 29 29 28 28 27 27 30 32 30 29 28 23 25 25 28 23 24 26 24 22 25
40 40 39 39 39 38 38 35 38 42 44 44 36 38 45 42 30 32 35 36 36 34 33 33 32 33 31 30 28 29 29 31 31 31 29 30 29 23 23 28 28 27 27 26 31 29 25
40 40 39 38 39 38 38 35 38 40 44 46 39 32 37 38 39 35 34 34 33 37 35 35 34 33 32 30 31 31 29 32 32 31 33 32 29 26 19 22 27 29 30 32 31 25 23
38 39 39 38 39 38 38 37 40 42 45 46 40 34 37 31 34 35 34 34 32 32 36 35 34 33 32 30 31 32 30 31 33 33 33 32 28 29 30 29 30 30 30 31 30 30 26
38 37 36 37 38 38 38 38 40 41 44 42 38 37 39 34 35 33 32 31 31 34 34 33 32 33 34 32 31 29 31 32 29 33 32 34 29 31 29 30 30 31 34 34 33 32 32
37 38 38 38 38 38 38 39 39 40 44 40 40 42 40 34 35 32 32 31 32 34 36 35 33 34 33 34 36 37 35 35 33 32 32 32 32 30 26 29 30 30 34 35 34 34 32
39 38 38 36 38 38 38 38 37 39 43 44 42 42 39 33 35 30 32 33 32 32 32 38 37 35 37 41 41 41 41 39 39 37 34 33 33 31 27 29 25 35 37 38 37 36 36
39 38 38 37 38 38 38 39 36 39 42 44 44 42 41 34 33 33 33 35 36 37 37 36 39 40 42 41 37 33 31 32 33 37 36 35 33 30 26 28 28 32 36 37 34 35 35
37 37 38 37 38 38 39 38 36 39 42 43 43 46 44 36 33 33 34 35 34 35 38 38 42 44 43 39 36 29 25 26 28 34 36 36 35 31 27 26 23 30 35 39 37 31 31
36 36 36 37 37 38 38 36 36 38 41 42 42 47 44 40 38 37 35 35 37 36 36 40 40 41 43 37 32 30 28 30 28 29 30 32 32 29 29 28 30 31 32 39 26 27 33
36 35 35 35 36 36 35 35 35 37 39 42 41 46 43 42 41 40 39 39 39 38 37 38 38 38 38 33 33 33 31 30 31 31 32 30 29 30 31 29 26 32 35 32 32 35 34
36 36 34 33 33 33 33 33 35 36 37 39 39 42 43 43 41 45 44 43 41 40 40 40 38 38 38 35 36 36 32 32 32 27 34 32 31 29 31 29 32 33 34 34 35 35 34
Wind_Speed
20 22 23 22 22 24 23 23 24 22 25 26 24 25 24 24 23 20 17 15 13 10 7 3 2 1 3 6 6 2 3 3 5 17 15 10 9 7 10 5 6 12 11 9 11 10 12
21 21 22 23 22 22 24 24 22 22 22 25 24 23 24 24 23 23 17 17 15 12 9 5 3 2 3 8 3 1 1 1 4 17 17 14 7 5 3 5 10 2 8 11 10 15 15
20 21 20 23 25 24 24 25 23 23 25 24 24 23 23 23 25 21 19 20 17 13 10 7 5 3 4 7 2 2 3 3 2 12 14 10 10 7 7 5 5 6 12 14 18 15 16
19 19 21 23 25 25 26 24 25 24 24 24 24 24 24 23 22 20 21 23 20 15 13 9 7 3 5 1 3 2 3 6 6 5 6 12 9 5 6 3 3 4 6 7 3 3 6
22 22 23 23 26 24 25 25 26 26 27 24 24 24 24 23 21 21 22 21 21 17 13 11 6 3 4 1 5 5 7 10 10 10 9 8 9 5 5 7 6 8 10 10 11 9 8
24 22 23 25 25 24 26 24 27 27 28 25 24 23 24 23 21 20 18 17 20 14 11 7 4 3 5 4 4 5 5 13 7 13 9 6 4 7 9 11 9 7 14 12 13 2 9
25 24 24 26 27 25 27 27 26 25 26 25 25 22 22 22 17 17 14 9 14 7 8 7 9 1 4 4 5 4 10 11 11 12 11 8 9 15 17 16 14 5 8 11 11 11 21
25 26 27 28 27 28 27 27 27 28 23 26 22 20 21 20 20 18 13 7 16 12 8 10 8 7 2 2 5 8 11 11 15 16 11 7 15 14 9 11 14 16 19 21 19 16 15
26 28 29 27 29 28 29 28 27 27 26 24 23 22 21 21 19 16 9 9 15 14 6 7 14 8 4 6 4 13 17 8 13 14 19 10 2 5 16 15 15 18 19 18 21 20 22
28 31 28 30 31 30 29 29 27 26 28 25 18 19 23 18 13 9 7 11 15 7 5 9 10 7 14 8 5 10 17 7 5 14 11 10 12 7 11 14 14 18 9 15 16 13 11
30 30 31 31 31 30 29 28 29 28 28 24 21 28 25 14 9 6 6 13 4 4 9 12 8 9 12 13 12 7 15 4 9 9 7 4 6 12 15 17 12 9 7 8 10 15 18
29 30 30 30 30 29 29 27 28 30 28 30 33 27 25 13 11 9 3 9 7 8 8 9 8 14 15 17 8 8 9 4 2 8 9 11 2 6 9 11 15 1 8 12 14 12 15
29 29 30 30 30 29 28 29 30 30 31 35 39 33 22 18 12 9 6 4 8 7 8 10 11 16 17 16 11 10 13 13 9 7 11 6 19 10 8 9 8 14 4 5 6 10 13
30 30 30 30 29 28 28 29 30 30 33 36 35 11 9 15 18 7 7 5 5 7 8 6 17 20 8 21 9 11 14 14 18 7 3 4 4 15 13 19 6 17 17 10 7 9 11
31 31 29 29 28 28 27 30 29 31 32 35 31 5 4 9 18 5 12 14 4 8 14 15 16 11 6 13 7 10 11 10 11 18 8 6 5 3 13 9 14 6 16 17 21 30 23
31 30 29 29 27 28 27 29 30 31 33 34 13 6 5 16 18 12 8 4 3 8 22 22 8 8 11 17 10 14 14 5 13 17 16 2 6 8 3 9 13 13 1 6 11 8 15
30 29 29 28 28 28 28 30 29 32 35 34 4 2 9 20 12 6 5 2 6 16 14 4 8 10 9 15 12 12 6 3 9 12 19 9 6 3 4 16 18 13 13 10 12 13 13
27 29 29 29 28 27 27 29 29 34 33 20 3 1 11 15 5 4 5 3 9 12 2 5 7 10 16 12 12 9 9 5 9 12 12 14 5 11 18 12 15 18 20 26 19 17 16
28 29 29 28 28 27 28 29 30 33 37 13 2 5 9 4 6 6 2 4 5 5 4 4 5 4 4 9 6 8 6 2 11 13 12 15 8 6 5 3 7 12 21 32 28 21 28
28 28 28 28 27 27 28 30 32 34 40 10 2 4 4 2 1 8 7 4 6 6 6 9 10 9 7 4 2 4 7 2 10 14 8 14 6 11 16 18 10 17 25 19 27 24 35
29 26 26 27 27 27 27 30 31 33 40 9 4 4 0 5 7 7 2 5 9 5 4 4 4 5 5 4 4 4 8 4 5 10 9 11 8 14 25 31 30 33 37 36 27 35 27
26 27 28 27 26 26 26 28 29 31 36 6 4 2 3 7 11 12 6 6 7 5 4 4 5 6 5 4 5 6 8 9 5 11 12 9 7 9 23 28 27 29 28 28 25 27 28
25 24 24 25 25 25 25 25 27 28 22 6 8 4 1 9 10 13 8 7 7 7 2 3 5 5 5 8 7 10 9 5 5 7 14 6 4 5 10 19 33 8 7 13 10 11 13
25 25 23 23 23 24 25 25 26 26 23 9 4 4 2 4 8 14 10 5 8 7 3 1 3 6 3 3 1 4 12 17 16 16 12 6 6 3 12 21 6 4 16 15 13 17 16
24 24 22 21 22 22 23 23 25 24 24 14 4 4 2 4 11 10 11 9 9 5 1 3 2 2 2 2 2 3 4 4 9 17 21 19 13 6 6 10 17 9 10 7 3 8 16
23 23 22 21 21 21 21 22 23 24 25 17 6 6 4 4 11 11 10 10 8 6 2 4 1 1 3 4 4 3 2 2 2 3 2 15 19 14 6 6 5 2 7 6 2 6 14
21 21 21 21 20 19 21 21 22 23 25 17 5 4 4 3 1 11 14 14 6 7 2 3 2 3 3 5 5 6 4 2 4 3 5 5 5 17 14 8 11 6 7 1 7 10 17
20 21 22 22 21 21 21 22 22 23 24 17 11 3 7 2 1 2 5 7 6 8 5 5 4 3 3 5 3 4 5 4 3 3 5 9 8 7 7 7 6 2 3 3 4 10 14
19 20 20 20 20 21 20 20 20 22 22 19 6 9 11 4 1 1 1 1 2 8 6 8 1 4 4 4 5 3 5 3 4 3 4 6 7 2 7 5 2 3 10 7 5 9 7
Wind_Direction
357 358 355 353 352 350 346 347 348 343 334 335 331 329 332 329 324 299 236 221 214 204 208 222 272 287 224 207 236 137 324 328 231 194 186 164 181 198 220 212 203 228 244 243 244 250 255
353 354 351 352 348 349 343 342 337 333 333 327 325 322 317 320 322 318 262 212 212 201 184 192 192 213 211 228 92 8 273 102 190 186 196 182 192 207 229 226 229 220 254 262 260 255 261
351 344 350 346 343 340 337 336 333 332 327 325 313 319 315 313 315 313 291 214 207 197 179 178 180 197 227 249 163 18 63 103 134 195 179 185 147 177 175 212 226 262 278 270 261 255 260
340 340 336 341 331 333 330 330 326 324 321 327 317 316 311 306 310 312 309 224 194 187 177 165 162 186 248 204 248 257 170 118 99 103 187 164 145 172 212 159 199 248 260 273 120 192 235
331 334 335 331 324 333 323 323 321 323 322 320 312 313 308 305 304 307 308 237 184 174 164 147 148 210 253 164 215 192 181 150 124 107 102 127 155 148 167 220 247 221 256 243 281 246 267
332 333 330 325 323 329 317 323 319 317 321 319 312 313 312 305 302 309 297 238 168 155 149 143 133 236 222 195 151 139 161 157 139 136 126 146 154 183 214 205 234 253 235 248 255 224 275
329 327 324 327 328 328 323 320 316 320 317 317 311 308 311 310 295 304 305 187 140 159 188 181 179 161 126 117 133 140 164 147 144 175 183 194 205 211 220 225 245 280 264 259 263 277 294
327 327 327 326 326 324 324 320 318 318 319 316 311 302 306 313 298 309 309 238 175 153 179 194 148 208 207 126 137 151 180 171 180 197 183 185 231 235 225 225 239 252 263 269 282 278 281
329 327 324 327 323 324 323 320 320 317 318 310 306 304 308 307 294 298 246 222 209 166 110 169 205 211 173 196 175 175 185 173 185 178 195 201 163 224 211 223 237 247 256 267 268 286 289
332 327 329 327 324 327 323 321 316 318 317 314 312 311 304 307 290 304 278 219 277 242 152 176 191 209 187 174 219 168 184 168 172 201 192 232 228 184 191 223 232 261 259 257 273 284 276
331 330 331 327 328 327 324 322 317 318 321 314 309 301 290 272 292 291 302 169 255 6 189 141 151 148 171 178 136 171 183 201 187 171 175 178 186 204 224 232 222 240 242 252 267 271 285
331 331 328 329 330 327 326 320 321 325 316 317 317 292 283 253 241 245 3 96 89 133 201 153 140 166 153 191 161 129 168 220 205 204 232 248 194 202 221 221 215 299 235 249 261 256 255
328 329 334 334 332 327 330 325 328 323 327 327 313 293 273 216 206 181 155 66 128 185 161 150 169 160 159 172 162 156 176 178 181 179 221 240 239 220 200 222 215 219 182 260 233 211 250
331 335 333 334 333 334 331 329 328 329 333 330 331 308 234 199 199 171 168 155 176 123 142 152 146 147 158 156 177 167 169 192 216 202 138 227 253 202 189 215 208 207 212 223 260 248 295
336 336 337 337 333 338 334 334 330 333 337 344 334 356 94 171 154 157 146 191 167 165 142 142 133 143 135 169 160 168 192 204 206 200 198 191 252 179 194 204 206 177 217 235 273 270 273
340 342 342 340 340 341 339 337 333 337 339 346 327 334 116 138 122 111 134 156 209 146 134 143 135 184 165 173 162 185 186 211 215 200 204 201 261 207 214 216 230 212 179 195 201 256 252
342 341 344 343 345 345 343 342 340 340 339 335 296 255 139 124 97 90 156 71 103 140 132 150 130 143 158 169 181 183 176 177 200 189 192 192 212 167 172 209 206 194 224 222 263 243 258
343 346 346 348 349 348 344 348 342 340 340 324 252 127 141 132 112 90 128 194 125 149 112 103 95 104 150 164 171 182 199 227 178 160 193 195 217 243 235 245 228 240 238 224 233 244 236
344 342 345 348 349 349 350 350 344 345 334 318 101 106 162 270 132 130 195 128 121 127 54 98 100 83 129 155 149 183 189 176 179 185 183 172 218 280 257 215 216 238 239 237 239 258 248
344 345 346 349 352 352 353 351 348 348 343 352 101 87 70 106 309 122 125 75 102 50 75 76 106 95 110 119 170 158 207 215 197 206 203 185 225 234 259 279 299 268 268 249 234 246 255
347 348 346 349 353 355 354 353 353 354 346 344 50 60 70 148 144 128 72 113 146 111 77 87 102 120 139 141 167 208 209 223 200 208 199 199 255 250 261 273 279 273 275 278 253 240 248
348 350 351 352 354 355 357 355 356 357 346 27 45 118 167 137 143 175 147 187 151 113 130 128 112 153 174 169 184 195 192 216 222 189 196 211 267 302 288 282 274 280 277 277 267 253 250
342 352 351 348 354 355 356 357 358 357 4 355 343 323 262 146 160 175 179 183 169 132 124 135 154 167 204 231 233 244 223 252 253 208 200 215 233 297 283 315 311 290 315 297 275 255 257
345 347 354 349 354 354 355 357 359 355 4 344 298 275 256 135 168 187 171 151 163 185 186 49 159 183 103 107 179 244 242 244 239 229 209 198 183 227 291 309 306 286 320 302 295 278 280
348 350 353 352 352 354 352 357 354 352 354 341 289 269 247 147 196 191 172 138 123 87 153 255 192 130 71 243 256 271 218 227 237 230 228 221 240 279 276 303 276 301 326 306 314 322 18
349 352 353 353 356 350 352 357 351 350 352 347 315 241 276 165 212 189 176 185 185 219 186 222 211 345 189 237 190 239 265 308 243 159 158 221 223 228 272 299 297 197 290 281 227 348 21
347 349 348 346 347 353 353 354 346 349 354 356 276 338 277 257 163 177 188 184 168 171 186 136 192 180 212 196 226 223 236 224 253 216 183 158 180 216 236 257 277 281 319 275 5 321 345
342 344 346 349 348 350 347 345 343 349 353 1 291 333 332 300 166 184 166 154 150 169 168 154 161 183 165 211 220 211 235 220 253 214 191 192 186 198 201 229 282 172 294 330 328 309 315
337 341 343 343 342 340 338 335 339 346 346 355 316 321 314 233 342 301 46 13 208 203 165 175 150 142 184 211 219 290 240 236 251 264 192 229 217 250 226 251 325 243 274 294 303 289 297